Weather in Voznesenske

Ukraine / Kyiv Region     50°24′37″N   32°01′52″E
temp.,
°C
wind,
m/s
gust,
m/s
humid.,
%
clouds,
%
prec.,
mm/h
press.,
hPa
HPBL,
m
7 march, sun
sun723:00−8w34800 0.0 102528
02:00−9wsw44790 0.0 102462
05:00−7sw511850 0.0 1022213
08:00−5sw7158630 0.0 1019423
11:00−1wsw9158098 0.0 10161076
14:00+1wsw9158391 0.0 10131268
17:00+1wsw71582100 0.0 1011960
20:000w7168497 0.1 1011690
8 march, mon
mon823:00−1wsw6158754 0.0 1010621
02:00−1wsw6148977 0.0 1009651
05:00−2wsw6139196 0.1 1008635
08:00−1w5109198 0.3 1009743
11:00−1wnw698034 0.0 10111063
14:00−1wnw487717 0.0 10111147
17:00−3wsw468139 0.0 1011133
20:00−5wnw5128468 0.2 1013305
9 march, tue
tue923:00−7nw489031 0.0 1014145
02:00−8nw349121 0.0 101660
05:00−8nw369583 0.1 1017157
08:00−8nnw379486 0.1 1019247
11:00−6nnw468628 0.0 1021618
14:00−6nnw458233 0.0 1022717
17:00−8n228762 0.0 102221
20:00−10n118475 0.0 102521
10 march, wed
wed1023:00−11e018587 0.0 102521
02:00−12s118752 0.0 102621
05:00−12se118942 0.0 102621
08:00−10se229167 0.0 102649
11:00−6se238373 0.0 1026281
14:00−5sse227750 0.0 1026503
17:00−7se12840 0.0 102521
20:00−10ese22840 0.0 102621
11 march, thu
thu1123:00−11se22800 0.0 102621
02:00−11se12760 0.0 102621
05:00−12se11750 0.0 102621
08:00−10sse127912 0.0 102721
11:00−5s237710 0.0 1026236
14:00−3s46775 0.0 1026484
17:00−5sse34810 0.0 102556
20:00−7sse487617 0.0 1025107